CW9769 Weather Reports


Display with metric or nautical units.
time (UTC)temp
F
wind
direction
speed
MPH
gust
MPH
rain 1hr
in
rain 24hr
in
rain mn
in
humidity
%
barometer
mb
20260903201616 92 294 6.0 17.0 0.00 0.00 0.00 60 1012.1
20260903200616 93 301 9.0 17.0 0.00 0.00 0.00 59 1012.1
20260903195615 93 292 5.0 14.0 0.00 0.00 0.00 58 1012.4
20260903194614 93 316 7.0 14.0 0.00 0.00 0.00 61 1012.8
20260903193613 94 309 8.0 14.0 0.00 0.00 0.00 62 1013.2
20260903192612 93 328 5.0 11.0 0.00 0.00 0.00 63 1013.5
20260903191611 93 295 6.0 11.0 0.00 0.00 0.00 61 1013.8
20260903190610 92 312 4.0 12.0 0.00 0.00 0.00 63 1014.2
20260903185538 92 297 5.0 12.0 0.00 0.00 0.00 61 1014.2
20260903184538 92 291 4.0 11.0 0.00 0.00 0.00 60 1014.2
20260903183536 92 312 6.0 11.0 0.00 0.00 0.00 62 1014.2
20260903182535 92 284 7.0 13.0 0.00 0.00 0.00 61 1014.2
20260903181535 92 299 7.0 12.0 0.00 0.00 0.00 66 1014.3
20260903180503 92 313 7.0 11.0 0.00 0.00 0.00 64 1014.3
20260903175502 92 298 7.0 12.0 0.00 0.00 0.00 64 1014.6
20260903174501 92 309 6.0 10.0 0.00 0.00 0.00 61 1014.6
20260903173500 92 316 3.0 12.0 0.00 0.00 0.00 65 1015.0
20260903172458 92 307 3.0 12.0 0.00 0.00 0.00 66 1015.0
20260903171426 92 303 6.0 9.0 0.00 0.00 0.00 63 1015.3
20260903170425 91 341 2.0 7.0 0.00 0.00 0.00 68 1015.3
20260903165424 90 303 2.0 5.0 0.00 0.00 0.00 68 1015.3
20260903164423 89 307 3.0 7.0 0.00 0.00 0.00 70 1015.3
20260903163422 88 344 4.0 7.0 0.00 0.00 0.00 70 1015.6
20260903162422 88 301 4.0 7.0 0.00 0.00 0.00 71 1015.9
20260903161421 89 284 4.0 7.0 0.00 0.00 0.00 72 1015.9
20260903160420 88 312 3.0 7.0 0.00 0.00 0.00 72 1015.5
20260903155419 88 271 5.0 9.0 0.00 0.00 0.00 72 1015.5
20260903154419 88 283 3.0 9.0 0.00 0.00 0.00 70 1015.5
20260903153418 87 294 3.0 10.0 0.00 0.00 0.00 71 1015.5
20260903152417 87 298 3.0 10.0 0.00 0.00 0.00 71 1015.5
20260903151416 86 328 3.0 9.0 0.00 0.00 0.00 76 1015.8
20260903150416 85 313 5.0 10.0 0.00 0.00 0.00 72 1015.4
20260903145415 84 310 5.0 10.0 0.00 0.00 0.00 74 1015.4
20260903144343 84 321 4.0 9.0 0.00 0.00 0.00 75 1015.7
20260903143342 83 293 5.0 9.0 0.00 0.00 0.00 78 1015.4
20260903142341 82 294 4.0 8.0 0.00 0.00 0.00 78 1015.7
20260903141341 81 307 4.0 8.0 0.00 0.00 0.00 79 1015.6
20260903140340 81 289 3.0 8.0 0.00 0.00 0.00 80 1015.6
20260903135339 81 303 5.0 8.0 0.00 0.00 0.00 80 1015.3
20260903134338 80 297 3.0 7.0 0.00 0.00 0.00 80 1015.3
20260903133337 80 302 2.0 8.0 0.00 0.00 0.00 82 1015.6
20260903132336 80 295 5.0 8.0 0.00 0.00 0.00 81 1015.6
20260903131336 80 296 4.0 8.0 0.00 0.00 0.00 81 1015.6
20260903130335 80 287 4.0 8.0 0.00 0.00 0.00 81 1016.0
20260903125334 80 260 2.0 6.0 0.00 0.00 0.00 82 1016.0
20260903124333 79 234 2.0 4.0 0.00 0.00 0.00 85 1016.0
20260903123333 77 249 1.0 2.0 0.00 0.00 0.00 88 1015.9
20260903122332 76 251 1.0 2.0 0.00 0.00 0.00 90 1015.9
20260903121331 75 251 1.0 2.0 0.00 0.00 0.00 91 1015.9
20260903120330 74 238 1.0 2.0 0.00 0.00 0.00 91 1015.9
20260903115328 74 171 1.0 2.0 0.00 0.00 0.00 90 1015.9
20260903114256 74 101 0.0 2.0 0.00 0.00 0.00 89 1015.9
20260903113255 75 118 1.0 2.0 0.00 0.00 0.00 89 1016.0
20260903112254 75 190 1.0 4.0 0.00 0.00 0.00 88 1015.7
20260903111253 76 213 1.0 6.0 0.00 0.00 0.00 88 1015.7
20260903110149 76 49 3.0 10.0 0.00 0.00 0.00 88 1015.7
20260903105148 75 325 3.0 11.0 0.00 0.00 0.00 87 1015.4
20260903104147 75 105 5.0 11.0 0.00 0.00 0.00 89 1015.4
20260903103146 75 273 1.0 2.0 0.00 0.00 0.00 91 1015.0
20260903102114 74 294 1.0 3.0 0.00 0.00 0.00 90 1015.0
20260903101113 74 260 1.0 3.0 0.00 0.00 0.00 91 1015.1
20260903100112 74 277 1.0 3.0 0.00 0.00 0.00 91 1015.1
20260903095112 74 274 2.0 2.0 0.00 0.00 0.00 91 1015.0
20260903094110 74 273 1.0 2.0 0.00 0.00 0.00 91 1015.1
20260903093110 73 278 1.0 2.0 0.00 0.00 0.00 91 1015.1
20260903092109 73 281 1.0 2.0 0.00 0.00 0.00 90 1015.1
20260903091108 74 238 0.0 2.0 0.00 0.00 0.00 90 1015.1
20260903090035 74 238 0.0 3.0 0.00 0.00 0.00 89 1015.1
20260903085034 73 226 1.0 4.0 0.00 0.00 0.00 90 1014.7
20260903084033 72 223 2.0 3.0 0.00 0.00 0.00 90 1014.7
20260903083032 72 265 1.0 2.0 0.00 0.00 0.00 88 1014.7
20260903081959 72 267 1.0 2.0 0.00 0.00 0.00 87 1014.7
20260903080957 73 233 0.0 2.0 0.00 0.00 0.00 86 1015.0
20260903075956 73 181 1.0 2.0 0.00 0.00 0.00 85 1015.1
20260903074954 73 210 2.0 2.0 0.00 0.00 0.00 84 1015.1
20260903073954 73 208 1.0 2.0 0.00 0.00 0.00 85 1015.4
20260903072953 73 178 0.0 2.0 0.00 0.00 0.00 85 1015.4
20260903071952 74 221 1.0 2.0 0.00 0.00 0.00 84 1015.1
20260903070951 75 178 0.0 2.0 0.00 0.00 0.00 83 1015.1
20260903065817 75 228 0.0 2.0 0.00 0.00 0.00 81 1015.1
20260903064816 76 121 1.0 2.0 0.00 0.00 0.00 79 1015.1
20260903063816 77 121 1.0 2.0 0.00 0.00 0.00 78 1015.5
20260903062813 78 121 1.0 9.0 0.00 0.00 0.00 76 1015.9
20260903061741 79 49 2.0 12.0 0.00 0.00 0.00 75 1015.9
20260903060741 80 24 3.0 12.0 0.00 0.00 0.00 76 1015.9
20260903055738 80 1 3.0 13.0 0.00 0.00 0.00 79 1015.9
20260903054737 80 52 7.0 13.0 0.00 0.00 0.00 80 1015.9
20260903053737 80 316 4.0 11.0 0.00 0.00 0.00 80 1015.2
20260903052704 81 306 6.0 11.0 0.00 0.00 0.00 79 1015.2
20260903051703 81 316 4.0 10.0 0.00 0.00 0.00 78 1015.2
20260903050701 81 318 5.0 14.0 0.00 0.00 0.00 78 1014.9
20260903045700 81 302 9.0 14.0 0.00 0.00 0.00 78 1014.5
20260903044700 81 295 5.0 11.0 0.00 0.00 0.00 77 1014.5
20260903043659 82 300 8.0 16.0 0.00 0.00 0.00 77 1014.6
20260903042658 81 294 6.0 16.0 0.00 0.00 0.00 77 1014.2
20260903041554 81 299 5.0 13.0 0.00 0.00 0.00 78 1014.2
20260903040554 80 303 7.0 12.0 0.00 0.00 0.00 79 1014.1
20260903035553 79 285 5.0 11.0 0.00 0.00 0.00 80 1013.8
20260903034552 79 279 5.0 10.0 0.00 0.00 0.00 81 1013.8
20260903033551 79 272 5.0 10.0 0.00 0.00 0.00 80 1013.4
20260903032550 79 263 4.0 10.0 0.00 0.00 0.00 80 1013.4
20260903031447 79 263 5.0 9.0 0.00 0.00 0.00 79 1013.4
20260903030446 79 266 5.0 10.0 0.00 0.00 0.00 79 1013.7
20260903025445 79 256 4.0 8.0 0.00 0.00 0.00 79 1014.1
20260903024444 80 264 5.0 8.0 0.00 0.00 0.00 78 1014.4
20260903023444 80 260 4.0 8.0 0.00 0.00 0.00 78 1014.4
20260903022443 80 265 4.0 7.0 0.00 0.00 0.00 78 1014.3
20260903021442 80 264 3.0 6.0 0.00 0.00 0.00 78 1014.7
20260903020441 80 261 2.0 4.0 0.00 0.00 0.00 78 1014.7
20260903015441 80 261 2.0 5.0 0.00 0.00 0.00 77 1014.6
20260903014438 81 258 2.0 6.0 0.00 0.00 0.00 77 1014.6
20260903013436 81 260 2.0 6.0 0.00 0.00 0.00 77 1014.6
20260903012435 81 247 2.0 6.0 0.00 0.00 0.00 76 1014.6
20260903011433 81 255 2.0 5.0 0.00 0.00 0.00 76 1014.6
20260903010433 81 257 2.0 5.0 0.00 0.00 0.00 76 1014.6
20260903005432 82 266 3.0 6.0 0.00 0.00 0.00 75 1014.6
20260903004430 82 270 4.0 7.0 0.00 0.00 0.00 74 1014.3
20260903003429 83 274 5.0 7.0 0.00 0.00 0.00 73 1014.3
20260903002429 83 276 4.0 8.0 0.00 0.00 0.00 73 1014.3
20260903001427 84 282 5.0 8.0 0.00 0.00 0.00 72 1014.3
20260903000426 84 272 3.0 8.0 0.00 0.00 0.00 71 1014.3
20260902235426 85 269 4.0 8.0 0.00 0.00 0.00 70 1014.3
20260902234425 86 273 5.0 9.0 0.00 0.00 0.00 69 1014.3
20260902233353 87 272 5.0 8.0 0.00 0.00 0.00 68 1014.4
20260902232352 87 284 5.0 8.0 0.00 0.00 0.00 66 1014.4
20260902231351 88 280 4.0 8.0 0.00 0.00 0.00 65 1014.4
20260902230350 88 271 5.0 8.0 0.00 0.00 0.00 65 1014.0
20260902225349 89 287 4.0 10.0 0.00 0.00 0.00 65 1014.0
20260902224317 89 280 5.0 10.0 0.00 0.00 0.00 63 1014.4
20260902223316 90 278 4.0 11.0 0.00 0.00 0.00 60 1014.4
20260902222315 90 296 7.0 14.0 0.00 0.00 0.00 60 1014.4
20260902221314 91 289 8.0 14.0 0.00 0.00 0.00 60 1014.4
20260902220314 91 279 9.0 13.0 0.00 0.00 0.00 59 1014.4
20260902215313 91 297 7.0 16.0 0.00 0.00 0.00 60 1014.4
20260902214210 92 288 5.0 11.0 0.00 0.00 0.00 61 1014.4
20260902213209 92 291 7.0 13.0 0.00 0.00 0.00 58 1014.4
20260902212208 92 299 8.0 11.0 0.00 0.00 0.00 58 1014.4
20260902211207 92 288 5.0 13.0 0.00 0.00 0.00 58 1014.4
20260902210206 92 292 7.0 14.0 0.00 0.00 0.00 58 1014.8
20260902205205 92 304 8.0 14.0 0.00 0.00 0.00 57 1014.7
20260902204134 92 310 7.0 12.0 0.00 0.00 0.00 59 1015.1
20260902203102 93 310 6.0 15.0 0.00 0.00 0.00 58 1015.1